Location: Gammelsbach
(49.5261°N, 8.9630°E)
Time: 04:54:45
(UTC+00:00)

Cosmos 2278 Rocket - Pass Details

Date: 17 June 2025
Orbit: 838 x 846 km, 71.0° (Epoch: 12 July)

Event Time Altitude Azimuth Distance (km) Brightness Sun altitude
Exits shadow 23:27:33 16° 134° (SE) 2,086 3.9 -17.1°
Maximum altitude 23:30:06 21° 101° (E) 1,812 3.8 -17.1°
Drops below altitude 10° 23:34:12 10° 54° (NE) 2,470 5.1 -17.0°
Sets 23:37:12 0° 39° (NE) 3,412 6.3 -17.0°
